Time,TemperatureF,DewpointF,PressureIn,WindDirection,WindDirectionDegrees,WindSpeedMPH,WindSpeedGustMPH,Humidity,HourlyPrecipIn,Conditions,Clouds,dailyrainin,SoftwareType,DateUTC
2013-11-26 00:00:00,19.9,17.7,29.01,NW,307,2.0,4.0,91,0.00,CLR,,0.00,WeatherDisplay:10.37,2013-11-26 06:00:00,
2013-11-26 00:15:00,19.8,17.3,29.01,WNW,293,0.0,4.0,90,0.00,CLR,,0.00,WeatherDisplay:10.37,2013-11-26 06:15:00,
2013-11-26 00:30:00,19.4,17.2,29.01,WNW,301,0.0,2.0,91,0.00,CLR,,0.00,WeatherDisplay:10.37,2013-11-26 06:30:00,
2013-11-26 00:45:00,19.2,17.0,29.01,WNW,293,0.0,0.0,91,0.00,CLR,,0.00,WeatherDisplay:10.37,2013-11-26 06:45:00,
2013-11-26 01:00:00,18.7,16.5,29.02,WNW,290,0.0,0.0,91,0.00,CLR,,0.00,WeatherDisplay:10.37,2013-11-26 07:00:00,
2013-11-26 01:15:00,18.9,17.0,29.02,NW,305,0.0,2.0,92,0.00,CLR,,0.00,WeatherDisplay:10.37,2013-11-26 07:15:00,
2013-11-26 01:45:00,18.7,17.0,29.01,WNW,290,2.0,42.0,93,0.00,CLR,,0.00,WeatherDisplay:10.37,2013-11-26 07:45:00,
2013-11-26 02:03:00,18.5,16.8,29.02,NW,315,3.0,41.0,93,0.00,CLR,,0.00,WeatherDisplay:10.37,2013-11-26 08:03:00,
2013-11-26 02:18:00,18.7,17.2,29.02,NW,318,2.0,4.0,94,0.00,CLR,,0.00,WeatherDisplay:10.37,2013-11-26 08:18:00,
2013-11-26 02:33:00,20.1,18.9,29.03,NW,316,2.0,4.0,95,0.00,CLR,,0.00,WeatherDisplay:10.37,2013-11-26 08:33:00,
2013-11-26 02:48:00,21.4,20.2,29.03,NW,318,1.0,5.0,95,0.00,CLR,,0.00,WeatherDisplay:10.37,2013-11-26 08:48:00,
2013-11-26 03:03:00,22.1,20.6,29.04,NW,321,1.0,3.0,94,0.00,CLR,,0.00,WeatherDisplay:10.37,2013-11-26 09:03:00,
2013-11-26 03:18:00,22.6,20.9,29.03,NW,315,1.0,3.0,93,0.00,CLR,,0.00,WeatherDisplay:10.37,2013-11-26 09:18:00,
2013-11-26 03:33:00,23.2,21.5,29.03,NW,323,0.0,3.0,93,0.00,CLR,,0.00,WeatherDisplay:10.37,2013-11-26 09:33:00,
2013-11-26 03:47:00,24.2,22.7,29.03,NW,315,3.0,5.0,94,0.00,CLR,,0.00,WeatherDisplay:10.37,2013-11-26 09:47:00,
2013-11-26 04:03:00,25.2,23.2,29.03,NW,322,3.0,6.0,92,0.00,CLR,,0.00,WeatherDisplay:10.37,2013-11-26 10:03:00,
2013-11-26 04:18:00,25.7,23.4,29.03,NW,315,3.0,6.0,91,0.00,CLR,,0.00,WeatherDisplay:10.37,2013-11-26 10:18:00,
2013-11-26 04:31:00,26.3,24.0,29.04,NNW,328,3.0,6.0,91,0.00,CLR,,0.00,WeatherDisplay:10.37,2013-11-26 10:31:00,
2013-11-26 04:47:00,27.7,24.9,29.04,NW,325,3.0,8.0,89,0.00,CLR,,0.00,WeatherDisplay:10.37,2013-11-26 10:47:00,
2013-11-26 05:04:00,28.0,24.9,29.05,North,350,2.0,6.0,88,0.00,CLR,,0.00,WeatherDisplay:10.37,2013-11-26 11:04:00,
2013-11-26 05:19:00,28.2,24.8,29.05,NNW,334,3.0,8.0,87,0.00,CLR,,0.00,WeatherDisplay:10.37,2013-11-26 11:19:00,
2013-11-26 05:30:00,28.4,24.7,29.06,NNW,337,3.0,8.0,86,0.00,CLR,,0.00,WeatherDisplay:10.37,2013-11-26 11:30:00,
2013-11-26 05:48:00,28.4,24.7,29.06,NNW,334,3.0,8.0,86,0.00,CLR,,0.00,WeatherDisplay:10.37,2013-11-26 11:48:00,
2013-11-26 06:04:00,28.7,24.5,29.07,NNW,328,3.0,8.0,84,0.00,CLR,,0.00,WeatherDisplay:10.37,2013-11-26 12:04:00,
2013-11-26 06:15:00,29.1,24.0,29.08,NNW,331,3.0,11.0,81,0.00,CLR,,0.00,WeatherDisplay:10.37,2013-11-26 12:15:00,
2013-11-26 06:33:00,28.9,23.2,29.08,NNW,335,5.0,11.0,79,0.00,CLR,,0.00,WeatherDisplay:10.37,2013-11-26 12:33:00,
2013-11-26 06:45:00,28.0,21.1,29.09,North,351,5.0,10.0,75,0.00,CLR,,0.00,WeatherDisplay:10.37,2013-11-26 12:45:00,
2013-11-26 07:00:00,25.9,20.0,29.10,NNW,337,3.0,8.0,78,0.00,CLR,,0.00,WeatherDisplay:10.37,2013-11-26 13:00:00,
2013-11-26 07:18:00,24.6,19.0,29.11,NNW,335,5.0,8.0,79,0.00,CLR,,0.00,WeatherDisplay:10.37,2013-11-26 13:18:00,
2013-11-26 07:30:00,23.8,18.5,29.12,NNW,333,2.0,8.0,80,0.00,CLR,,0.00,WeatherDisplay:10.37,2013-11-26 13:30:00,
2013-11-26 07:48:00,22.8,17.9,29.13,NW,322,3.0,8.0,81,0.00,CLR,,0.00,WeatherDisplay:10.37,2013-11-26 13:48:00,
2013-11-26 08:14:00,24.1,18.2,29.16,NNW,336,5.0,9.0,78,0.00,CLR,,0.00,WeatherDisplay:10.37,2013-11-26 14:14:00,
2013-11-26 08:29:00,23.2,17.0,29.17,NNW,334,6.0,10.0,77,0.00,CLR,,0.00,WeatherDisplay:10.37,2013-11-26 14:29:00,
2013-11-26 08:48:00,23.7,15.7,29.17,NNW,332,6.0,14.0,71,0.00,CLR,,0.00,WeatherDisplay:10.37,2013-11-26 14:48:00,
2013-11-26 09:02:00,24.1,15.0,29.18,NNW,334,7.0,14.0,68,0.00,CLR,,0.00,WeatherDisplay:10.37,2013-11-26 15:02:00,
2013-11-26 09:16:00,24.6,14.5,29.19,NW,323,7.0,13.0,65,0.00,CLR,,0.00,WeatherDisplay:10.37,2013-11-26 15:16:00,
2013-11-26 09:34:00,24.5,14.4,29.20,NW,319,6.0,17.0,65,0.00,CLR,,0.00,WeatherDisplay:10.37,2013-11-26 15:34:00,
2013-11-26 09:48:00,25.1,14.3,29.21,NNW,329,6.0,13.0,63,0.00,CLR,,0.00,WeatherDisplay:10.37,2013-11-26 15:48:00,
2013-11-26 09:59:00,25.8,14.6,29.21,NNW,346,5.0,13.0,62,0.00,CLR,,0.00,WeatherDisplay:10.37,2013-11-26 15:59:00,
2013-11-26 10:18:00,27.5,13.4,29.22,North,358,5.0,13.0,55,0.00,CLR,,0.00,WeatherDisplay:10.37,2013-11-26 16:18:00,
2013-11-26 10:45:00,27.9,12.9,29.23,North,355,6.0,12.0,53,0.00,CLR,,0.00,WeatherDisplay:10.37,2013-11-26 16:45:00,
2013-11-26 10:59:00,27.9,12.5,29.23,NNW,340,6.0,13.0,52,0.00,CLR,,0.00,WeatherDisplay:10.37,2013-11-26 16:59:00,
2013-11-26 11:14:00,28.6,12.3,29.23,NNW,342,7.0,15.0,50,0.00,CLR,,0.00,WeatherDisplay:10.37,2013-11-26 17:14:00,
2013-11-26 11:29:00,29.6,12.3,29.22,North,352,6.0,17.0,48,0.00,CLR,,0.00,WeatherDisplay:10.37,2013-11-26 17:29:00,
2013-11-26 11:44:00,29.7,10.4,29.21,NW,321,6.0,15.0,44,0.00,CLR,,0.00,WeatherDisplay:10.37,2013-11-26 17:44:00,
2013-11-26 12:00:00,30.3,10.9,29.22,North,357,5.0,15.0,44,0.00,CLR,,0.00,WeatherDisplay:10.37,2013-11-26 18:00:00,
2013-11-26 12:14:00,30.0,10.2,29.21,NW,320,6.0,15.0,43,0.00,CLR,,0.00,WeatherDisplay:10.37,2013-11-26 18:14:00,
2013-11-26 12:29:00,30.4,10.0,29.21,NW,325,6.0,13.0,42,0.00,CLR,,0.00,WeatherDisplay:10.37,2013-11-26 18:29:00,
2013-11-26 12:45:00,30.7,9.8,29.20,NNW,330,6.0,14.0,41,0.00,CLR,,0.00,WeatherDisplay:10.37,2013-11-26 18:45:00,
2013-11-26 13:00:00,30.2,9.3,29.19,NNW,332,6.0,16.0,41,0.00,CLR,,0.00,WeatherDisplay:10.37,2013-11-26 19:00:00,
2013-11-26 13:15:00,30.6,9.1,29.19,NNW,338,6.0,15.0,40,0.00,CLR,,0.00,WeatherDisplay:10.37,2013-11-26 19:15:00,
2013-11-26 13:30:00,30.3,9.4,29.18,NW,323,6.0,15.0,41,0.00,CLR,,0.00,WeatherDisplay:10.37,2013-11-26 19:30:00,
2013-11-26 14:15:00,30.4,8.3,29.19,NNW,337,6.0,14.0,39,0.00,CLR,,0.00,WeatherDisplay:10.37,2013-11-26 20:15:00,
2013-11-26 14:30:00,30.6,9.1,29.19,NNW,341,7.0,14.0,40,0.00,CLR,,0.00,WeatherDisplay:10.37,2013-11-26 20:30:00,
2013-11-26 14:45:00,30.4,8.3,29.19,NNW,330,6.0,15.0,39,0.00,CLR,,0.00,WeatherDisplay:10.37,2013-11-26 20:45:00,
2013-11-26 15:00:00,30.7,8.7,29.19,NNW,339,5.0,13.0,39,0.00,CLR,,0.00,WeatherDisplay:10.37,2013-11-26 21:00:00,
2013-11-26 15:15:00,29.5,8.6,29.19,NW,320,7.0,15.0,41,0.00,CLR,,0.00,WeatherDisplay:10.37,2013-11-26 21:15:00,
2013-11-26 15:30:00,28.8,8.0,29.19,NNW,339,5.0,30.0,41,0.00,CLR,,0.00,WeatherDisplay:10.37,2013-11-26 21:30:00,
2013-11-26 15:45:00,26.8,8.2,29.19,NNW,345,7.0,13.0,45,0.00,CLR,,0.00,WeatherDisplay:10.37,2013-11-26 21:45:00,
2013-11-26 16:00:00,26.1,8.6,29.19,NNW,335,6.0,12.0,47,0.00,CLR,,0.00,WeatherDisplay:10.37,2013-11-26 22:00:00,
2013-11-26 16:15:00,26.6,8.6,29.19,NNW,336,6.0,10.0,46,0.00,CLR,,0.00,WeatherDisplay:10.37,2013-11-26 22:15:00,
2013-11-26 16:30:00,25.5,9.0,29.20,NNW,336,6.0,12.0,49,0.00,CLR,,0.00,WeatherDisplay:10.37,2013-11-26 22:30:00,
2013-11-26 16:48:00,24.6,8.6,29.20,NNW,332,5.0,11.0,50,0.00,CLR,,0.00,WeatherDisplay:10.37,2013-11-26 22:48:00,
2013-11-26 17:00:00,23.4,8.7,29.20,NNW,333,3.0,10.0,53,0.00,CLR,,0.00,WeatherDisplay:10.37,2013-11-26 23:00:00,
2013-11-26 17:15:00,22.3,8.5,29.20,NNW,332,2.0,8.0,55,0.00,CLR,,0.00,WeatherDisplay:10.37,2013-11-26 23:15:00,
2013-11-26 17:34:00,20.9,8.5,29.20,NNW,331,3.0,6.0,58,0.00,CLR,,0.00,WeatherDisplay:10.37,2013-11-26 23:34:00,
2013-11-26 17:49:00,20.5,9.2,29.21,NW,317,3.0,6.0,61,0.00,CLR,,0.00,WeatherDisplay:10.37,2013-11-26 23:49:00,
2013-11-26 18:03:00,19.8,9.2,29.22,NW,319,3.0,6.0,63,0.00,CLR,,0.00,WeatherDisplay:10.37,2013-11-27 00:03:00,
2013-11-26 18:15:00,19.0,8.8,29.22,NW,315,2.0,6.0,64,0.00,CLR,,0.00,WeatherDisplay:10.37,2013-11-27 00:15:00,
2013-11-26 18:35:00,18.2,8.8,29.21,NW,313,3.0,6.0,66,0.00,CLR,,0.00,WeatherDisplay:10.37,2013-11-27 00:35:00,
2013-11-26 18:49:00,17.4,9.0,29.21,NW,318,3.0,6.0,69,0.00,CLR,,0.00,WeatherDisplay:10.37,2013-11-27 00:49:00,
2013-11-26 19:05:00,16.9,8.8,29.21,NW,318,0.0,5.0,70,0.00,CLR,,0.00,WeatherDisplay:10.37,2013-11-27 01:05:00,
2013-11-26 19:15:00,16.3,8.6,29.22,NW,324,0.0,2.0,71,0.00,CLR,,0.00,WeatherDisplay:10.37,2013-11-27 01:15:00,
2013-11-26 19:30:00,15.6,8.5,29.22,NW,319,0.0,4.0,73,0.00,CLR,,0.00,WeatherDisplay:10.37,2013-11-27 01:30:00,
2013-11-26 19:48:00,15.4,8.6,29.22,NW,317,3.0,5.0,74,0.00,CLR,,0.00,WeatherDisplay:10.37,2013-11-27 01:48:00,
2013-11-26 20:00:00,15.1,8.6,29.22,NNW,332,2.0,6.0,75,0.00,CLR,,0.00,WeatherDisplay:10.37,2013-11-27 02:00:00,
2013-11-26 20:18:00,14.5,8.1,29.22,NW,324,0.0,3.0,75,0.00,CLR,,0.00,WeatherDisplay:10.37,2013-11-27 02:18:00,
2013-11-26 20:30:00,13.8,7.9,29.22,NW,314,0.0,0.0,77,0.00,CLR,,0.00,WeatherDisplay:10.37,2013-11-27 02:30:00,
2013-11-26 20:45:00,14.2,8.3,29.23,NW,321,0.0,0.0,77,0.00,CLR,,0.00,WeatherDisplay:10.37,2013-11-27 02:45:00,
2013-11-26 21:00:00,13.5,7.6,29.22,NW,319,0.0,0.0,77,0.00,CLR,,0.00,WeatherDisplay:10.37,2013-11-27 03:00:00,
2013-11-26 21:15:00,12.6,7.0,29.23,NW,315,0.0,0.0,78,0.00,CLR,,0.00,WeatherDisplay:10.37,2013-11-27 03:15:00,
2013-11-26 21:30:00,11.9,6.7,29.24,WNW,290,0.0,0.0,79,0.00,CLR,,0.00,WeatherDisplay:10.37,2013-11-27 03:30:00,
2013-11-26 21:45:00,10.9,5.7,29.23,WNW,302,0.0,0.0,79,0.00,CLR,,0.00,WeatherDisplay:10.37,2013-11-27 03:45:00,
2013-11-26 22:00:00,9.9,5.2,29.23,NW,308,1.0,3.0,81,0.00,CLR,,0.00,WeatherDisplay:10.37,2013-11-27 04:00:00,
2013-11-26 22:15:00,10.1,5.9,29.24,NW,315,1.0,3.0,83,0.00,CLR,,0.00,WeatherDisplay:10.37,2013-11-27 04:15:00,
2013-11-26 22:45:00,10.1,6.3,29.23,WNW,298,0.0,4.0,84,0.00,CLR,,0.00,WeatherDisplay:10.37,2013-11-27 04:45:00,
2013-11-26 23:00:00,9.0,4.6,29.23,NW,304,0.0,1.0,82,0.00,CLR,,0.00,WeatherDisplay:10.37,2013-11-27 05:00:00,
2013-11-26 23:15:00,7.7,3.4,29.24,NW,313,0.0,2.0,82,0.00,CLR,,0.00,WeatherDisplay:10.37,2013-11-27 05:15:00,
2013-11-26 23:34:00,7.3,3.3,29.25,NNE,26,0.0,3.0,83,0.00,CLR,,0.00,WeatherDisplay:10.37,2013-11-27 05:34:00,
2013-11-26 23:47:00,5.9,1.9,29.24,NE,45,2.0,5.0,83,0.00,CLR,,0.00,WeatherDisplay:10.37,2013-11-27 05:47:00,